Regional Weather Roundup
Issued by NWS

Home | Current Version | Previous Version | Text Only | Print | Product List | Glossary Off
Versions: 1 2 3 4 5 6 7 8 9 10 11 12 13 14 15 16 17 18 19 20 21 22 23 24 25 26 27 28 29 30 31 32 33 34 35 36 37 38 39 40 41 42 43 44 45 46 47 48 49 50

000
ASUS43 KMKX 051100
RWRWI

WISCONSIN REGIONAL WEATHER ROUNDUP
NATIONAL WEATHER SERVICE MILWAUKEE/SULLIVAN WI
600 AM CDT THU MAY 05 2016

NOTE: "FAIR" INDICATES FEW OR NO CLOUDS BELOW 12,000 FEET WITH NO
SIGNIFICANT WEATHER AND/OR OBSTRUCTIONS TO VISIBILITY.

WIZ001-002-006>008-014>016-023>028-051200-
NORTHWEST WISCONSIN

CITY           SKY/WX    TMP DP  RH WIND       PRES   REMARKS
SUPERIOR ARPT  LGT RAIN  37  36  97 CALM      30.03S
ASHLAND        PTCLDY    30  29  96 SW5       30.02S WCI  25
HAYWARD        MOCLDY    30  27  88 CALM      30.03R
SIREN          MOCLDY    36  32  87 W3        30.03R
CUMBERLAND     CLOUDY    34  30  86 CALM      30.02R
RICE LAKE      CLOUDY    35  32  88 CALM      30.04R
CHETEK         CLOUDY    32  31  96 CALM      30.03R
LADYSMITH      CLOUDY    31  29  90 CALM      30.03S
EAU CLAIRE     NOT AVBL
MENOMONIE      PTCLDY    34  29  82 CALM      30.03S
NEW RICHMOND   CLOUDY    38  33  84 CALM      30.02S
OSCEOLA        CLOUDY    40  36  84 CALM      30.05R
$$

WIZ003>005-009-010-017-018-051200-
NORTH CENTRAL WISCONSIN

CITY           SKY/WX    TMP DP  RH WIND       PRES   REMARKS
MANITOWISH WTR   N/A     27  27 100 CALM      30.01R FOG
ARBOR VITAE    PTCLDY    32  30  94 CALM      30.00S
WOODRUFF       PTCLDY    32  30  94 CALM      30.00S
RHINELANDER    PTCLDY    27  24  89 CALM      30.02R
EAGLE RIVER    PTCLDY    26  26  99 CALM      30.00R FOG
LAND O LAKES   CLEAR     25  24  98 CALM      30.01R
PHILLIPS       CLOUDY    28  28  99 CALM      30.00S
TOMAHAWK       PTCLDY    26  25  95 CALM      30.02R
MEDFORD        CLOUDY    30  30  99 CALM      30.01R
MERRILL        CLOUDY    29  29 100 CALM      30.01S
$$

WIZ029-030-035-036-043>047-051200-
CENTRAL WISCONSIN

CITY           SKY/WX    TMP DP  RH WIND       PRES   REMARKS
WAUSAU         CLOUDY    36  31  82 N6        30.00R WCI  31
MOSINEE        CLEAR     36  32  87 N7        30.01S WCI  30
MARSHFIELD     PTCLDY    38  30  73 N3        30.02R
STEVENS POINT  CLEAR     29  28  94 CALM      30.01S
WAUPACA        CLEAR     37  31  82 NW5       30.01R WCI  33
WAUTOMA        CLEAR     32  29  88 CALM      30.02R
WISC RAPIDS    CLEAR     32  29  88 CALM      30.03R
CAMP DOUGLAS   NOT AVBL
$$

WIZ011>013-019>022-031-037>040-048>050-051200-
NORTHEAST WISCONSIN

CITY           SKY/WX    TMP DP  RH WIND       PRES   REMARKS
ANTIGO         CLEAR     31  30  96 CALM      29.99F
SHAWANO        CLEAR     37  32  81 NW3       30.00R
OCONTO         CLEAR     34  33  97 CALM      30.00R
STURGEON BAY   CLEAR     37  30  75 N12       30.00S WCI  30
GREEN BAY      CLEAR     34  31  88 N7        30.00R WCI  28
MANITOWOC      NOT AVBL
APPLETON       PTCLDY    36  30  80 N7        29.98R WCI  30
CLINTONVILLE   CLEAR     36  30  80 N3        30.01R
OSHKOSH        CLEAR     35  30  82 N10       29.99R WCI  27
$$

WIZ032>034-041-042-053>061-051200-
SOUTHWEST WISCONSIN

CITY           SKY/WX    TMP DP  RH WIND       PRES   REMARKS
LA CROSSE      CLEAR     39  32  76 CALM      30.04R
SPARTA         PTCLDY    28  27  94 CALM      30.04R
VIROQUA        CLEAR     37  31  82 CALM      30.01R
BOSCOBEL       CLEAR     33  31  92 CALM      30.03R
PRAIRIE DU CHI CLEAR     38  32  79 CALM      30.02R
PLATTEVILLE    CLEAR     37  33  87 N3        30.00R
$$

WIZ056-057-062-063-064-067-068-051200-
SOUTH CENTRAL WISCONSIN

CITY           SKY/WX    TMP DP  RH WIND       PRES   REMARKS
REEDSBURG      CLEAR     37  32  81 CALM      30.00S
BARABOO/DELLS  CLEAR     36  31  83 CALM      30.00S
LONE ROCK      NOT AVBL
MINERAL POINT  CLEAR     39  32  75 N7        29.99R WCI  34
MADISON        PTCLDY    35  31  85 NW7       30.00R WCI  29
MIDDLETON      CLEAR     33  31  92 CALM      30.00R
WATERTOWN      CLEAR     35  35 100 N6        29.97R WCI  30
MONROE         CLEAR     36  32  87 N8        29.97S WCI  29
JANESVILLE     CLEAR     37  34  87 N5        29.96S WCI  34
$$

WIZ051-052-058>065-066-070>072-051200-
SOUTHEAST WISCONSIN

CITY           SKY/WX    TMP DP  RH WIND       PRES   REMARKS
MILWAUKEE      MOCLDY    41  32  70 N9        29.95R
WAUKESHA       MOCLDY    34  32  93 NW6       29.96S WCI  29
MILWAUKEE/TIMM CLOUDY    37  30  75 N9        29.96R WCI  31
RACINE         PTCLDY    41  33  73 N15       29.96R
BURLINGTON     CLEAR     36  31  84 N7        29.95R WCI  30
KENOSHA        PTCLDY    39  32  76 N6        29.94R WCI  35
FOND DU LAC    CLEAR     34  31  88 NW7       29.99R WCI  28
SHEBOYGAN      CLOUDY    38  32  79 N10       29.97R WCI  31
WEST BEND      MOCLDY    36  32  87 N7        29.96S WCI  30
JUNEAU         CLEAR     35  31  88 N7        29.98S WCI  29
$$

LSZ147-162-051200-
LAKE SUPERIOR

STATION/POSITION TIME  TEMP    WIND        PRES    WAVE
                       AIR SEA DIR/SP/G            HT/PER
                 (UTC) (F)     (DEG/KT/KT) (MB)    (FT/S)
W MID LAKE BUOY  0950   37 36  170/  2/  4 1016.8F   1/ 5
DEVILS ISLAND    1000   38     190/  3/  4 1017.0R
PORT WING        1000   34     180/  3/  4 1016.6
SAXON HARBOR     1000   33     180/  4/  6 1015.6F
$$

LMZ867-665-643>646-051200-
LAKE MICHIGAN

STATION/POSITION TIME  TEMP    WIND        PRES    WAVE
                       AIR SEA DIR/SP/G            HT/PER
                 (UTC) (F)     (DEG/KT/KT) (MB)    (FT/S)
CHAMBERS ISLAND  1000   38     330/  9/ 13 1015.6R
N MID LAKE BUOY  0950   38 38  340/ 14/ 16 1014.4R   2/ 4
NORTHPORT PIER   1000   39     330/ 11/ 14 1014.9S
ALGOMA LAKESHORE 1015          320/ 12/ 15   N/A
KEWAUNEE LAKESHO 1000   37     330/  7/  9 1014.1R
SHEBOYGAN LAKESH 1000   41     340/ 13/ 14 1015.0R
PORT WASHINGTON  1000   40     340/  6/ 12 1014.9
S MID LAKE BUOY  0950   40 40   20/ 19/ 23 1011.9R   7/ 7
KENOSHA   LAKESH 1000   42     350/ 17/ 25 1013.2R
$$

TC  - TEMPERATURE IN CELSIUS
VSB - VISIBILITY IN STATUTE MILES
WCI - WIND CHILL INDEX
HX  - HEAT INDEX





USA.gov is the U.S. government's official web portal to all federal, state and local government web resources and services.